STARLINK-32438, 61722

Orbit data source: Space-Track

STARLINK-32438, 61722 is a payload satellite owned by SpaceX/Seattle (US) in LEO that was launched on Wed, 30 Oct 2024 UTC via an FALCON 9 launch vehicle from the Air Force Eastern Test Range (AFETR). Payloads include a variety of satellites, spacecraft, and rockets equipped with specific instruments for various scientific and technological missions. These include communications satellites like Starlink; space stations such as the ISS; scientific satellites like the Hubble; Earth observation satellites from companies like Planet Labs, Umbra, and HawkEye 360; GPS; miniature CubeSats for education and research; and military/defense satellites.

Loading next visibility...
STARLINK-32438 details
Identifier
61722, 2024-196R
Orbit
LEO
Last TLE update1 day ago
Origin
Flag of USSpaceX/Seattle (US)
ManufacturerSpaceX/Seattle
MissionOperational spacecraft
Bus & MotorSTARLINK V2M, Unknown motor
Mass730 kg wet, ~700 kg dry
Launch date (UTC)
2024-10-30 (1 month ago)
Launch vehicle
FALCON 9
Launch site
Air Force Eastern Test Range (AFETR)
Object type
Payload
Rocket body
Debris
Shape & HBRUnknown
Radar Cross SectionLarge (>1 m²)

Expand to show TLE details & history

TLE from 1 day ago
0 STARLINK-32438
1 61722U 24196R   24347.59180510  .00000372  00000-0  19281-4 0  9996
2 61722  53.1612  44.4667 0000910  59.7933 300.3162 15.39603237  7916
Epoch: 2024-12-12T14:12Z
Definitive object data (Epoch: 2024-12-12T14:12:11.96Z)
Latitude-0.00002°
Longitude109.64692°
Altitude447.872 km
Speed7.645 km/s
True Right ascension02h 57m 52s
True Declination0° 00' 00"
Sunlit
Object was in full shadow at TLE epoch
Visualization TLE readout
Latitude-18.24794°
Longitude89.02222°
Altitude452.243 km
Speed7.641 km/s
Apparent Right ascension04h 37m 28s
Apparent Declination-45° 14' 22"
Sunlit
Object is in partial shadow
Visualization observer readout
Local Sidereal Time21:21:15
Azimuth120.821° SE
Elevation-39.193°
Doppler factor1
Orbital elements
Apogee altitude448.16 km
Perigee altitude446.918 km
Semi-major axis6,825.676 km
Eccentricity0.000091
Inclination53.1612°
RAAN44.4667°
Arg. of periapsis59.7933°
True anomaly300.3072°
Mean anomaly300.3162°
Eccentric anomaly300.3117°
Mean motion3.84879 °/min
BSTAR0.000019281
Orbital period93.54 mins
Loading maneuver chart data...
Loading historical data...
Loading historical data...
Loading historical data...
Loading historical data...
Loading historical data...
Loading historical data...
Loading historical data...

STARLINK-32438 Visibility forecast

Observer location: undefined°, undefined

Span
Click to sort rows by Start time (UTC) header in descending order
Start Az.
Max El. time (UTC)
Max El. Az.
Max El.
End time (UTC)
End Az.
4 mins2024-12-14 05:18:17.151Z172.073° S2024-12-14 05:20:17.151Z135.588° SSE17.451°2024-12-14 05:22:17.151Z93.768° ESE
5 mins2024-12-14 06:55:17.151Z255.912° W2024-12-14 06:57:17.151Z305.536° NW35.286°2024-12-14 07:00:17.151Z36.237° NE
4 mins2024-12-14 11:51:17.151Z355.312° N2024-12-14 11:52:17.151Z18.371° NNE19.825°2024-12-14 11:55:17.151Z77.63° E
5 mins2024-12-14 13:28:17.151Z294.562° NW2024-12-14 13:30:17.151Z207.263° SW40.015°2024-12-14 13:33:17.151Z144.885° SSE
|